Home > Weather > Herzogenrath > Past weeks

Flag for Germany Weather for the Past 2 Weeks in Herzogenrath, North Rhine-Westphalia, Germany

Now
36 °F

Low clouds.


Feels Like: 32 °F
Forecast: 35 / 38 °F
Wind: 5 mph from East

Location: Maastricht Airport Zuid Limburg

Current Time: Feb 13, 2016 at 11:19:32 PM

Latest Report: Feb 13, 2016 at 9:00 PM


Visibility: 5 mi

Pressure: 29.00 "Hg

Humidity: 97%

Dew point: 35 °F

Location of HerzogenrathLocation

Historic Weather in Herzogenrath — Graph

°F

Herzogenrath Temperature Yesterday

Maximum temperature yesterday: 41 °F (at 3:00 PM)
Minimum temperature yesterday: 34 °F (at 9:00 PM)
Average temperature yesterday: 38 °F

High & Low Weather Summary for the Past Weeks

 TemperatureHumidityPressure
High53 °F (Feb 1, 7:00 PM)99% (Feb 2, 12:00 PM)30.31 "Hg (Feb 2, 12:00 PM)
Low29 °F (Feb 13, 8:00 AM)60% (Feb 3, 2:00 PM)28.82 "Hg (Feb 9, 3:00 PM)
Average43 °F84%29.68 "Hg
* Reported Jan 29 9:00 PM — Feb 13 9:00 PM, Herzogenrath, Weather by CustomWeather, © 2016

Note: Actual official high and low records may vary slightly from our data, if they occured in-between our weather recording intervals... More about our weather records

Advertising

Herzogenrath Weather History for the Previous 24 Hours

 ConditionsComfort  
Time TempWeatherWind HumidityBarometerVisibility
9:00 PM
Sat, Feb 13
36 °FLow clouds.5 mph97%29.00 "Hg5 mi
8:00 PM37 °FDrizzle. Low clouds.6 mph94%29.00 "Hg4 mi
7:00 PM37 °FDrizzle. Low clouds.7 mph94%29.03 "Hg5 mi
6:00 PM37 °FRain. Overcast.7 mph94%29.03 "Hg3 mi
5:00 PM37 °FLight rain. Overcast.6 mph95%29.06 "Hg4 mi
4:00 PM38 °FLight rain. Overcast.6 mph91%29.09 "Hg6 mi
3:00 PM38 °FRain. Overcast.6 mph90%29.09 "Hg7 mi
2:00 PM38 °FOvercast.6 mph86%29.12 "Hg7 mi
1:00 PM38 °FOvercast.5 mph83%29.18 "Hg8 mi
12:00 PM38 °FOvercast.5 mph83%29.21 "Hg6 mi
11:00 AM35 °FFog.2 mph86%29.23 "Hg6 mi
10:00 AM34 °FOvercast.3 mph86%29.23 "Hg4 mi
9:00 AM31 °FFog.2 mph91%29.29 "Hg6 mi
8:00 AM29 °FOvercast.1 mph94%29.32 "Hg7 mi
7:00 AM29 °FFog.1 mph93%29.32 "Hg5 mi
6:00 AM29 °FFog.2 mph91%29.35 "Hg5 mi
5:00 AM30 °FFog.2 mph91%29.35 "Hg3 mi
4:00 AM31 °FPassing clouds.3 mph90%29.35 "Hg7 mi
Weather by CustomWeather, © 2016

See weather overviewHow to use our weather pages